[[{"header":{"parameterUnit":"m.s-1","parameterCategory":1,"la1":30.2991,"la2":30.254,"lo1":-89.0895,"lo2":-89.0444,"dy":0.0017,"dx":0.0017,"nx":28,"ny":28,"refTime":"2024-07-26T03:00:00:Z","depth":0,"parameterNumber":2,"parameterNumberName":"U-component_of_WINDS"},"data":[0,0,0,0,0,0,0,0,0,0,0,0,0,0,0,0,0,0,0,0,0,0,0,0,0,0,0,0,0,0,0,0,0,0,0,0,0,0,0,0,0,0,0,0,0,0,0,0,0,0,0,0,0,0,0,0,0,0,-0.7008,-0.7007,0,-0.6942,-0.6942,-0.6941,-0.6858,-0.6857,-0.6856,-0.6854,-0.6789,-0.6788,-0.6788,0,0,0,0,0,0,0,0,0,0,0,0,0,-0.7062,-0.7062,-0.7008,-0.7007,-0.7006,-0.6942,-0.6942,-0.6941,-0.6859,-0.6857,-0.6855,-0.6854,-0.6789,-0.6788,-0.6788,0,0,0,0,0,0,0,0,0,0,0,0,0,-0.7022,-0.7061,-0.7008,-0.6957,-0.6952,-0.6943,-0.6941,-0.694,-0.6859,-0.6857,-0.6855,-0.6853,-0.6789,-0.6788,-0.6787,-0.6822,0,0,-0.6785,-0.6785,0,0,0,0,0,0,0,0,-0.7024,-0.702,-0.6966,-0.6961,-0.6955,-0.6906,-0.6936,-0.6901,-0.6859,-0.6894,-0.6854,-0.6852,-0.6829,-0.6825,-0.6817,-0.6819,-0.6816,-0.6785,-0.6784,-0.6784,-0.6784,0,0,0,0,0,0,0,-0.7027,-0.7022,-0.6982,-0.6965,-0.6959,-0.6938,-0.693,-0.6929,-0.6874,-0.6891,-0.6885,-0.6878,-0.6826,-0.6818,-0.6815,-0.6815,-0.6785,-0.6784,-0.6784,-0.6783,-0.6842,-0.6844,0,0,0,0,0,0,-0.7037,-0.7025,-0.6984,-0.698,-0.6985,-0.6939,-0.693,-0.6924,-0.6874,-0.6864,-0.688,-0.6875,-0.6821,-0.6816,-0.6813,-0.685,-0.6784,-0.6783,-0.6783,-0.684,-0.6842,-0.6845,0,0,0,0,0,0,-0.7039,-0.7034,-0.6986,-0.7001,-0.6993,-0.694,-0.6934,-0.6924,-0.6916,-0.6865,-0.6855,-0.6882,-0.6819,-0.6814,-0.682,-0.6846,-0.6783,-0.6782,-0.6838,-0.6841,-0.6844,-0.6925,0,0,0,0,0,0,-0.7041,-0.7035,-0.7048,-0.7002,-0.6993,-0.6996,-0.6936,-0.6924,-0.6915,-0.6907,-0.6865,-0.6856,-0.6817,-0.6822,-0.682,-0.6844,-0.6782,-0.6835,-0.6839,-0.6843,-0.692,-0.693,-0.6939,0,0,0,0,0,-0.7043,-0.7074,-0.7049,-0.7045,-0.7007,-0.6997,-0.6992,-0.6947,-0.6917,-0.6929,-0.6897,-0.6857,-0.6844,-0.6823,-0.682,-0.6845,-0.6833,-0.6838,-0.6842,-0.6915,-0.6928,-0.6939,0,0,0,0,0,0,-0.7125,-0.7067,-0.7039,-0.7056,-0.7032,-0.6983,-0.6997,-0.6962,-0.6946,-0.694,-0.6884,-0.6875,-0.6889,-0.6867,-0.6845,-0.6875,-0.6833,-0.6837,-0.6889,-0.6901,-0.6911,-0.6916,-0.6781,0,0,0,0,0,-0.7145,-0.7142,-0.7091,-0.7111,-0.71,-0.7051,-0.7045,-0.7012,-0.6985,-0.6975,-0.6943,-0.6919,-0.6909,-0.6904,-0.6892,-0.6916,-0.6905,-0.6931,-0.6941,-0.695,-0.6954,-0.6965,-0.6975,-0.686,-0.686,-0.6859,0,0,-0.7187,-0.7154,-0.7156,-0.7126,-0.7104,-0.7102,-0.7043,-0.7043,-0.7041,-0.6975,-0.6979,-0.6955,-0.6924,-0.694,-0.6945,-0.6922,-0.6983,-0.6955,-0.6962,-0.6962,-0.697,-0.6981,-0.6991,-0.6863,-0.6862,-0.6862,0,0,-0.7261,-0.7236,-0.725,-0.7228,-0.7195,-0.7162,-0.7166,-0.7122,-0.7104,-0.7107,-0.7057,-0.7054,-0.7038,-0.7018,-0.7006,-0.7073,-0.7035,-0.707,-0.7122,-0.7133,-0.7143,-0.715,-0.7174,-0.7183,-0.7075,-0.7075,-0.7075,0,-0.7317,-0.7311,-0.7261,-0.7264,-0.7253,-0.7192,-0.7206,-0.7188,-0.7153,-0.7146,-0.7121,-0.71,-0.7075,-0.7085,-0.7101,-0.7094,-0.7096,-0.7075,-0.7145,-0.7153,-0.7159,-0.7181,-0.719,-0.7079,-0.7079,-0.7079,-0.7078,0,-0.7381,-0.7378,-0.7393,-0.736,-0.735,-0.7359,-0.731,-0.7306,-0.7274,-0.7244,-0.7248,-0.7216,-0.7197,-0.7196,-0.7165,-0.7202,-0.7189,-0.7155,-0.7111,-0.7175,-0.7195,-0.7203,-0.7086,-0.7084,-0.7083,-0.7082,0,0,-0.7506,-0.7445,-0.7451,-0.7436,-0.7394,-0.7391,-0.7397,-0.7377,-0.7375,-0.7353,-0.7356,-0.7344,-0.7313,-0.7299,-0.7265,-0.7275,-0.7329,-0.724,-0.7238,-0.7258,-0.7368,-0.7393,-0.7404,-0.7304,-0.7306,-0.7307,-0.737,0,-0.7572,-0.7578,-0.7533,-0.7551,-0.7547,-0.749,-0.7494,-0.747,-0.7442,-0.7435,-0.7404,-0.7396,-0.7355,-0.7347,-0.7354,-0.7322,-0.7351,-0.7316,-0.7307,-0.7307,-0.7317,-0.7414,-0.7441,-0.7502,-0.7378,-0.7379,-0.738,0,-0.7651,-0.7633,-0.765,-0.7608,-0.7604,-0.761,-0.7588,-0.7582,-0.7553,-0.7532,-0.7516,-0.7477,-0.7479,-0.7438,-0.744,-0.7418,-0.7411,-0.7395,-0.7396,-0.7393,-0.7348,-0.7414,-0.7521,-0.753,-0.7391,-0.739,-0.739,0,-0.774,-0.772,-0.7727,-0.7716,-0.7667,-0.7671,-0.7651,-0.762,-0.7611,-0.7593,-0.7586,-0.7568,-0.7559,-0.7546,-0.7503,-0.7476,-0.751,-0.7465,-0.7493,-0.7494,-0.7503,-0.7503,-0.761,-0.7499,-0.7499,-0.7499,-0.7498,0,-0.7819,-0.7832,-0.7767,-0.7772,-0.7784,-0.7733,-0.7747,-0.7721,-0.7694,-0.7693,-0.7642,-0.7642,-0.7585,-0.7579,-0.7545,-0.7552,-0.7548,-0.7531,-0.7522,-0.7536,-0.7538,-0.7531,-0.7525,-0.7501,-0.75,-0.75,-0.75,0,-0.7921,-0.7878,-0.7882,-0.7835,-0.7823,-0.7835,-0.7795,-0.7797,-0.7766,-0.7765,-0.7762,-0.7713,-0.7702,-0.7658,-0.7638,-0.7615,-0.7633,-0.7615,-0.7643,-0.7637,-0.7668,-0.7666,-0.7774,-0.7786,-0.7668,-0.7669,-0.767,0,-0.7974,-0.7983,-0.7936,-0.7932,-0.7914,-0.7907,-0.7898,-0.7847,-0.784,-0.7807,-0.7813,-0.7799,-0.7785,-0.7771,-0.7734,-0.7718,-0.7699,-0.7738,-0.7697,-0.771,-0.77,-0.77,-0.77,-0.7748,-0.7749,-0.775,-0.7751,0,-0.8074,-0.8052,-0.804,-0.8021,-0.8011,-0.7993,-0.7973,-0.7972,-0.7916,-0.791,-0.7899,-0.7888,-0.7866,-0.7853,-0.7831,-0.781,-0.7771,-0.7765,-0.777,-0.7784,-0.78,-0.7792,-0.7668,-0.7762,-0.7761,-0.7761,-0.776,-0.7759,-0.8153,-0.8157,-0.8126,-0.8114,-0.8093,-0.8075,-0.8075,-0.8043,-0.8033,-0.8012,-0.7983,-0.7975,-0.7945,-0.7911,-0.7893,-0.7887,-0.7865,-0.7874,-0.7876,-0.7879,-0.7885,-0.7801,-0.7883,-0.7882,-0.7882,-0.7882,-0.7881,0,-0.8249,-0.8226,-0.8216,-0.8189,-0.818,-0.8144,-0.8119,-0.8114,-0.8108,-0.8083,-0.807,-0.8058,-0.8044,-0.8005,-0.7988,-0.799,-0.7972,-0.7987,-0.7987,-0.7983,-0.7906,-0.7902,-0.8002,-0.8002,-0.8002,-0.8002,-0.8002,-0.8002,-0.8299,-0.8305,-0.8279,-0.8274,-0.8251,-0.8243,-0.8232,-0.8215,-0.8195,-0.8183,-0.8171,-0.8146,-0.8115,-0.8095,-0.8081,-0.807,-0.8066,-0.8087,-0.8071,-0.8,-0.7988,-0.7977,-0.7974,-0.8087,-0.8087,-0.8148,-0.8148,-0.8149]},{"header":{"parameterUnit":"m.s-1","parameterCategory":1,"la1":30.2991,"la2":30.254,"lo1":-89.0895,"lo2":-89.0444,"dy":0.0017,"dx":0.0017,"nx":28,"ny":28,"refTime":"2024-07-26T03:00:00:Z","depth":0,"parameterNumber":3,"parameterNumberName":"V-component_of_WINDS"},"data":[0,0,0,0,0,0,0,0,0,0,0,0,0,0,0,0,0,0,0,0,0,0,0,0,0,0,0,0,0,0,0,0,0,0,0,0,0,0,0,0,0,0,0,0,0,0,0,0,0,0,0,0,0,0,0,0,0,0,0.5792,0.5792,0,0.5769,0.5769,0.5769,0.5691,0.5689,0.5687,0.5686,0.5665,0.5666,0.5668,0,0,0,0,0,0,0,0,0,0,0,0,0,0.5769,0.577,0.5792,0.5792,0.5791,0.5769,0.5769,0.5769,0.5691,0.5689,0.5687,0.5685,0.5665,0.5666,0.5668,0,0,0,0,0,0,0,0,0,0,0,0,0,0.5766,0.577,0.5792,0.575,0.5746,0.5769,0.5769,0.5769,0.5692,0.5689,0.5686,0.5684,0.5665,0.5666,0.5668,0.5731,0,0,0.5673,0.5674,0,0,0,0,0,0,0,0,0.5767,0.5767,0.5756,0.5753,0.5748,0.573,0.5754,0.5756,0.5692,0.5712,0.5686,0.5683,0.5689,0.5689,0.569,0.573,0.5729,0.5673,0.5674,0.5675,0.5675,0,0,0,0,0,0,0,0.5767,0.5768,0.5783,0.5756,0.5751,0.5733,0.5729,0.5754,0.5716,0.571,0.5705,0.5703,0.5687,0.5689,0.5689,0.5729,0.5673,0.5674,0.5675,0.5676,0.5818,0.5821,0,0,0,0,0,0,0.5773,0.5768,0.5784,0.5782,0.5751,0.5735,0.5731,0.5739,0.5715,0.5709,0.5705,0.5699,0.5687,0.5687,0.5688,0.576,0.5675,0.5676,0.5677,0.5816,0.5819,0.5822,0,0,0,0,0,0,0.5773,0.5775,0.5785,0.5774,0.5774,0.5738,0.5747,0.574,0.5742,0.5711,0.5705,0.5714,0.5685,0.5686,0.5721,0.5758,0.5677,0.5679,0.5812,0.5817,0.582,0.5905,0,0,0,0,0,0,0.5772,0.5775,0.5799,0.5775,0.5774,0.5817,0.575,0.5741,0.5745,0.5737,0.5718,0.5713,0.5683,0.5719,0.5722,0.5759,0.568,0.5809,0.5814,0.5819,0.5899,0.5912,0.5923,0,0,0,0,0,0.5772,0.5824,0.58,0.5803,0.5803,0.582,0.5819,0.5784,0.5748,0.5772,0.5752,0.5713,0.5754,0.5723,0.5726,0.5764,0.5806,0.5813,0.5819,0.5894,0.5909,0.5923,0,0,0,0,0,0,0.5855,0.5821,0.5794,0.584,0.5833,0.5806,0.5835,0.5801,0.5805,0.5798,0.5754,0.5751,0.5791,0.5781,0.5747,0.5824,0.5773,0.5781,0.5829,0.5844,0.5856,0.5858,0.5681,0,0,0,0,0,0.5879,0.5894,0.5863,0.5908,0.5905,0.5871,0.5877,0.5849,0.5841,0.5838,0.5821,0.5815,0.5826,0.5834,0.5843,0.5897,0.5891,0.5925,0.5937,0.5947,0.5954,0.5981,0.5995,0.5842,0.5842,0.5842,0,0,0.5928,0.5911,0.5924,0.5924,0.5915,0.5933,0.5869,0.5891,0.5903,0.5842,0.5873,0.586,0.585,0.5895,0.5913,0.5887,0.5994,0.5955,0.5963,0.5964,0.5989,0.6003,0.6016,0.5847,0.5846,0.5845,0,0,0.6027,0.6016,0.6051,0.6043,0.603,0.6007,0.6015,0.5993,0.5982,0.6012,0.5966,0.598,0.6,0.5995,0.5995,0.609,0.6055,0.6094,0.6157,0.6184,0.6196,0.6206,0.624,0.6253,0.6101,0.6101,0.6101,0,0.609,0.6114,0.6073,0.6097,0.6098,0.6042,0.6077,0.6071,0.6063,0.6065,0.6036,0.6059,0.6049,0.6091,0.6114,0.6115,0.6124,0.6096,0.6197,0.6207,0.6217,0.6248,0.6261,0.6106,0.6106,0.6105,0.6105,0,0.6192,0.621,0.624,0.6231,0.6235,0.6265,0.6229,0.6238,0.621,0.619,0.6221,0.6206,0.621,0.6218,0.6192,0.6256,0.624,0.6205,0.6154,0.6237,0.6266,0.6278,0.6113,0.6111,0.611,0.6109,0,0,0.6345,0.6312,0.6323,0.6318,0.6299,0.6312,0.6339,0.6342,0.6351,0.6346,0.6368,0.6385,0.6352,0.6352,0.6324,0.6348,0.6423,0.6309,0.6308,0.6331,0.6493,0.6521,0.6535,0.6399,0.6402,0.6403,0.6494,0,0.6439,0.6482,0.6445,0.6495,0.651,0.6456,0.6479,0.647,0.6452,0.6462,0.6442,0.6455,0.641,0.6409,0.643,0.641,0.6456,0.6403,0.642,0.6421,0.6424,0.655,0.658,0.6666,0.6505,0.6507,0.6509,0,0.6554,0.6554,0.6605,0.6581,0.6587,0.6608,0.6607,0.6618,0.6606,0.6591,0.659,0.6555,0.658,0.6529,0.6563,0.6528,0.6532,0.6523,0.6525,0.6526,0.647,0.6555,0.6693,0.6706,0.6526,0.6525,0.6523,0,0.666,0.6672,0.6704,0.6702,0.6675,0.6691,0.6681,0.6667,0.6671,0.667,0.6672,0.6674,0.6676,0.6679,0.6646,0.6612,0.6684,0.663,0.6672,0.6673,0.669,0.669,0.6831,0.6693,0.6693,0.6692,0.6692,0,0.6769,0.6803,0.6751,0.6771,0.6807,0.6764,0.6801,0.6785,0.6773,0.6789,0.6742,0.6758,0.6713,0.6725,0.6699,0.6731,0.6732,0.672,0.6713,0.6725,0.6726,0.6728,0.6721,0.6696,0.6695,0.6694,0.6694,0,0.6894,0.6861,0.6892,0.6864,0.6857,0.6885,0.6861,0.6878,0.6855,0.6876,0.6879,0.6844,0.6855,0.6822,0.6828,0.681,0.6856,0.6839,0.686,0.6855,0.6899,0.6896,0.7047,0.7064,0.6915,0.6916,0.6917,0,0.6966,0.6991,0.6964,0.6971,0.6963,0.6975,0.6977,0.6936,0.6941,0.6929,0.6948,0.6954,0.6958,0.6978,0.6954,0.6958,0.6941,0.6993,0.6941,0.6952,0.6941,0.6941,0.6943,0.7004,0.7006,0.7008,0.7009,0,0.7098,0.7079,0.7085,0.7085,0.7089,0.7087,0.7082,0.709,0.7045,0.7053,0.7063,0.7066,0.7071,0.7079,0.7077,0.7067,0.7031,0.7025,0.7035,0.7048,0.7059,0.7054,0.689,0.7022,0.7021,0.702,0.7019,0.7019,0.7198,0.7217,0.7201,0.7208,0.72,0.7196,0.721,0.7189,0.7196,0.7196,0.7171,0.7186,0.7173,0.7167,0.716,0.7172,0.7148,0.7162,0.7166,0.717,0.7178,0.7057,0.7171,0.7171,0.7171,0.717,0.717,0,0.7327,0.7314,0.7321,0.7314,0.732,0.7284,0.7276,0.7283,0.7297,0.7287,0.7291,0.7302,0.7308,0.7284,0.7287,0.7301,0.7284,0.7303,0.7302,0.73,0.7199,0.719,0.7316,0.7316,0.7316,0.7316,0.7316,0.7316,0.7395,0.7425,0.7405,0.7429,0.7415,0.7429,0.7427,0.7423,0.7415,0.7429,0.7434,0.7417,0.7402,0.7403,0.7407,0.74,0.7403,0.7428,0.7415,0.7322,0.7307,0.7294,0.7285,0.7429,0.7429,0.7515,0.7516,0.7516]}]]